Location: Habighorst
(52.7089°N, 10.2278°E)
Time: 04:04:54
(UTC+00:00)

Cosmos 44 - Visible Passes

Search period start: 21 April 2026 00:00
Search period end: 01 May 2026 00:00
Orbit: 568 x 782 km, 65.1° (Epoch: 20 April)

Date Brightness Start Highest point End Pass type
(mag) Time Alt. Az. Time Alt. Az. Time Alt. Az.
21 Apr 6.0 00:43:53 10° NW 00:48:05 22° N 00:52:19 10° ENE visible
21 Apr 5.1 02:25:32 10° NW 02:30:36 38° NNE 02:35:37 10° E visible
21 Apr 3.4 20:12:13 10° SSW 20:17:17 69° SE 20:22:37 10° NE visible
21 Apr 5.0 21:53:59 10° W 21:58:50 37° NNW 22:03:50 10° NE visible
21 Apr 6.0 23:37:13 10° WNW 23:41:22 22° N 23:45:35 10° NE visible
22 Apr 5.7 01:19:33 10° NW 01:24:07 27° NNE 01:28:42 10° ENE visible
22 Apr 4.1 03:00:48 10° NW 03:06:12 65° NE 03:11:31 10° SE visible
22 Apr 4.1 19:07:13 10° S 19:11:42 32° ESE 19:16:24 10° NE visible
22 Apr 4.0 20:47:28 10° WSW 20:52:35 62° NW 20:57:56 10° NE visible
22 Apr 5.7 22:30:15 10° WNW 22:34:42 26° NNW 22:39:15 10° NE visible
23 Apr 6.0 00:13:16 10° NW 00:17:29 22° N 00:21:42 10° ENE visible
23 Apr 5.1 01:54:55 10° NW 01:59:59 38° NNE 02:05:00 10° E visible
23 Apr 3.4 19:41:35 10° SSW 19:46:40 70° SE 19:52:00 10° NE visible
23 Apr 5.1 21:23:21 10° W 21:28:12 37° NNW 21:33:13 10° NE visible
23 Apr 6.0 23:06:36 10° WNW 23:10:45 22° N 23:14:57 10° NE visible
24 Apr 5.7 00:48:55 10° NW 00:53:30 27° NNE 00:58:05 10° ENE visible
24 Apr 4.0 02:30:10 10° NW 02:35:35 65° NE 02:40:53 10° SE visible
24 Apr 4.0 20:16:50 10° WSW 20:21:57 62° NW 20:27:19 10° NE visible
24 Apr 5.7 21:59:38 10° WNW 22:04:05 26° NNW 22:08:37 10° NE visible
24 Apr 6.0 23:42:38 10° NW 23:46:51 22° N 23:51:04 10° ENE visible
25 Apr 5.0 01:24:16 10° NW 01:29:22 39° NNE 01:34:23 10° E visible
25 Apr 3.5 03:05:28 10° NW 03:10:52 66° SW 03:16:06 10° SSE visible
25 Apr 3.4 19:10:56 10° SSW 19:16:01 70° SE 19:21:22 10° NE visible
25 Apr 5.1 20:52:43 10° W 20:57:34 37° NNW 21:02:35 10° NE visible
25 Apr 6.0 22:35:58 10° WNW 22:40:07 22° N 22:44:20 10° NE visible
26 Apr 5.7 00:18:17 10° NW 00:22:53 27° NNE 00:27:27 10° ENE visible
26 Apr 4.0 01:59:31 10° NW 02:04:57 66° NE 02:10:15 10° SE visible
26 Apr 4.1 19:46:12 10° WSW 19:51:19 61° NW 19:56:41 10° NE visible
26 Apr 5.8 21:29:00 10° WNW 21:33:28 26° NNW 21:38:00 10° NE visible
26 Apr 6.0 23:12:01 10° NW 23:16:14 23° N 23:20:28 10° ENE visible
27 Apr 5.0 00:53:39 10° NW 00:58:44 39° NNE 01:03:45 10° E visible
27 Apr 3.5 02:34:51 10° NW 02:40:14 66° SW 02:45:28 10° SSE visible
27 Apr 5.2 20:22:06 10° W 20:26:57 37° NNW 20:31:57 10° NE visible
27 Apr 6.0 22:05:20 10° NW 22:09:30 22° N 22:13:42 10° NE visible
27 Apr 5.7 23:47:39 10° NW 23:52:15 27° NNE 23:56:50 10° ENE visible
28 Apr 3.9 01:28:54 10° NW 01:34:18 66° NE 01:39:37 10° SE visible
28 Apr 4.2 03:10:28 10° WNW 03:15:10 31° WSW 03:19:44 10° S visible
28 Apr 4.2 19:15:33 10° WSW 19:20:42 61° NW 19:26:03 10° NE visible
28 Apr 5.8 20:58:23 10° WNW 21:02:50 26° NNW 21:07:22 10° NE visible
28 Apr 6.0 22:41:23 10° NW 22:45:36 23° N 22:49:49 10° ENE visible
29 Apr 4.9 00:23:00 10° NW 00:28:06 39° NNE 00:33:07 10° E visible
29 Apr 3.5 02:04:13 10° NW 02:09:36 65° SW 02:14:49 10° SSE visible
29 Apr 5.2 19:51:28 10° W 19:56:19 36° NNW 20:01:20 10° NE visible
29 Apr 6.0 21:34:42 10° NW 21:38:52 22° N 21:43:05 10° NE visible
29 Apr 5.6 23:17:02 10° NW 23:21:37 27° NNE 23:26:12 10° ENE visible
30 Apr 3.9 00:58:16 10° NW 01:03:41 67° NE 01:08:59 10° SE visible
30 Apr 4.2 02:39:50 10° WNW 02:44:31 31° WSW 02:49:05 10° S visible
30 Apr 5.8 20:27:45 10° WNW 20:32:12 26° NNW 20:36:44 10° NE visible
30 Apr 5.9 22:10:45 10° NW 22:14:58 23° N 22:19:12 10° ENE visible
